Temperature
19 17 17 17 18 18 19 19 19 19 20 20 19 19 19 20 20 20 20 20 21 21 21 21 21 20 20 20 20 19 19 19 18 18 18 17 17 16 16 16 16 16 15 15
17 17 18 19 19 20 19 18 18 19 20 20 19 19 19 19 19 20 20 20 21 21 21 21 21 20 20 20 20 19 19 19 18 18 18 17 17 16 16 16 16 15 15 15
17 18 20 20 19 19 19 19 19 19 19 19 19 18 18 19 19 20 20 21 21 21 21 21 20 20 20 20 20 19 19 19 18 18 18 17 17 17 16 16 16 15 15 15
18 19 20 19 19 19 19 20 20 19 18 17 18 17 18 18 18 19 19 20 20 20 21 21 20 20 20 20 20 19 19 19 18 18 18 17 17 17 16 16 16 15 15 15
18 20 20 20 20 20 19 20 20 19 17 17 17 17 17 18 18 18 18 19 20 20 20 20 20 20 20 20 20 19 19 19 18 18 18 17 17 17 16 16 16 16 15 15
19 21 20 20 21 21 20 19 19 17 17 17 18 17 17 17 18 18 18 19 20 20 20 20 20 20 20 20 19 19 19 19 18 18 18 17 17 17 17 16 16 16 15 15
20 20 21 21 21 20 19 17 17 17 16 17 18 18 17 18 19 19 19 19 20 20 20 20 20 20 20 19 19 19 19 19 18 18 18 17 17 17 17 16 16 16 16 15
18 19 20 21 20 19 19 18 17 17 17 17 18 18 18 19 19 20 20 20 20 20 20 20 20 20 20 19 19 19 19 18 18 18 18 17 17 17 17 16 16 16 16 15
18 19 21 22 21 20 18 17 17 17 17 17 17 18 19 19 18 18 19 19 19 19 20 20 20 20 19 19 19 19 19 18 18 18 18 17 17 17 17 16 16 16 16 15
18 19 20 21 21 20 18 18 16 17 17 17 18 18 17 18 18 18 18 18 19 19 19 19 19 19 19 19 19 19 18 18 18 18 17 17 17 17 17 16 16 16 16 15
19 19 20 21 20 20 19 18 17 16 17 17 17 18 19 19 18 18 18 18 19 19 19 19 19 19 19 19 19 18 18 18 18 17 17 17 17 17 16 16 16 16 16 15
19 17 18 20 21 21 20 20 18 17 17 16 17 18 20 19 18 18 18 18 19 19 19 19 19 19 19 19 18 18 18 18 18 17 17 17 17 16 16 16 16 16 16 15
19 18 18 19 20 21 21 21 19 17 16 16 16 18 18 18 18 18 18 18 18 18 19 18 18 18 18 18 18 18 18 17 17 17 17 17 17 16 16 16 16 16 15 15
19 18 18 19 19 20 21 21 20 18 17 17 17 18 18 17 17 17 18 18 18 18 18 18 18 18 18 18 18 17 17 17 17 17 17 16 16 16 16 16 16 15 15 15
19 19 20 20 21 21 21 21 21 19 18 18 18 18 18 18 17 17 18 18 17 17 18 18 18 18 18 18 17 17 17 17 17 16 16 16 16 16 15 15 15 15 15 15
18 20 20 21 21 21 21 21 21 20 20 19 19 18 18 18 18 17 17 17 17 17 17 17 17 17 17 17 17 17 17 17 16 16 16 16 16 15 15 15 15 15 15 14
18 19 19 19 20 21 20 21 21 20 20 20 19 18 17 17 17 17 17 17 17 17 17 17 17 17 17 17 17 17 17 16 16 16 16 15 15 15 15 15 15 14 14 14
18 18 17 18 20 20 20 20 21 20 20 19 19 18 18 18 18 18 18 18 18 18 18 17 17 17 17 17 17 17 16 16 16 16 15 15 15 15 14 14 14 14 14 14
18 18 17 17 18 19 20 21 20 20 19 19 18 18 18 18 17 17 18 19 18 18 18 18 17 17 17 17 16 16 16 16 15 15 15 15 14 14 14 14 14 13 13 13
17 17 16 16 18 19 20 20 21 20 18 19 18 17 17 17 15 15 18 18 18 18 18 17 17 17 16 16 16 16 16 15 15 15 14 14 14 14 14 13 13 13 13 13
18 17 16 16 17 18 19 20 21 19 18 19 19 18 18 17 18 18 18 18 18 18 17 17 17 16 16 16 16 15 15 15 14 14 14 14 14 13 13 13 13 12 12 12
17 16 16 15 17 17 19 19 19 18 19 20 19 19 19 19 18 18 18 18 18 17 17 17 16 16 15 15 15 15 15 14 14 14 14 13 13 13 13 12 12 12 12 12
15 16 15 15 16 17 19 20 20 21 20 20 20 19 19 19 18 18 18 17 17 17 17 16 16 15 15 15 15 14 14 14 14 13 13 13 13 12 12 12 12 12 11 11
16 15 15 15 16 17 18 20 20 21 21 20 20 19 19 18 18 18 17 17 17 16 16 16 15 15 15 14 14 14 14 13 13 13 13 12 12 12 12 12 11 11 11 10
16 15 14 15 16 17 18 19 19 20 20 19 19 19 19 18 18 17 17 16 16 16 16 15 15 15 14 14 14 13 13 13 13 13 12 12 12 12 11 11 11 11 10 10
14 15 15 15 16 15 17 18 19 19 19 19 18 18 18 18 17 17 16 16 16 15 15 15 14 14 14 13 13 13 13 12 12 12 12 12 11 11 11 11 11 10 10 10
Wind_Speed
2 3 3 5 6 4 3 3 2 3 2 2 5 5 4 2 4 4 5 7 8 6 6 7 9 9 8 8 8 8 8 6 5 4 3 3 2 1 1 1 3 4 4 5
3 2 6 3 3 2 3 3 3 2 2 2 3 2 2 2 4 6 7 7 8 6 6 6 7 8 8 8 8 8 8 6 5 4 3 2 2 1 1 1 2 2 3 3
5 5 4 4 3 4 4 6 5 3 1 2 4 2 3 2 1 3 4 6 8 11 11 9 8 7 8 8 8 8 8 7 5 5 4 4 4 3 3 2 1 1 1 2
4 4 4 5 5 6 5 7 7 6 4 1 2 1 4 2 2 3 4 5 6 7 8 8 8 7 8 8 7 8 8 7 5 6 5 5 3 2 2 1 1 1 1 1
4 4 5 6 6 6 5 4 5 5 5 2 1 3 5 2 4 5 6 7 7 7 9 9 9 8 7 7 7 7 7 6 5 5 6 6 4 2 1 0 0 1 1 1
5 3 4 6 5 6 5 6 6 4 4 0 3 3 4 4 7 6 6 7 8 8 8 7 6 7 6 5 6 6 7 5 5 5 5 6 5 4 2 1 1 1 1 2
3 4 2 3 3 2 5 6 3 2 2 3 2 3 6 6 7 9 10 9 8 8 8 8 7 7 7 6 6 6 6 5 4 5 4 5 5 5 4 3 2 1 1 1
2 3 3 3 5 5 4 7 6 5 4 2 0 3 5 4 5 7 8 8 8 8 8 8 8 8 7 7 6 6 6 4 4 4 4 4 4 3 3 3 3 3 2 3
4 4 4 3 3 7 5 4 6 5 3 1 1 2 4 3 5 6 8 8 9 8 8 8 7 7 6 6 6 6 6 5 4 4 3 3 3 3 3 3 2 2 2 2
6 3 4 3 4 3 5 6 5 5 4 2 1 3 5 6 7 7 8 9 9 8 7 7 6 5 5 5 4 4 5 4 3 3 3 3 2 2 2 2 1 2 2 1
4 4 2 2 5 5 4 3 5 4 4 5 3 5 6 11 11 11 10 10 10 9 8 7 6 5 5 5 5 4 4 3 3 3 2 3 2 1 1 1 1 1 1 1
4 5 2 5 4 5 6 6 7 5 3 3 3 5 4 9 9 11 10 9 9 8 8 7 6 5 5 5 4 4 4 3 3 3 3 3 2 2 2 0 1 1 1 1
5 5 3 4 4 0 3 5 6 6 5 4 4 4 1 7 8 9 10 10 8 8 8 7 6 5 5 4 4 4 3 3 3 3 3 2 2 2 1 0 1 1 1 1
6 4 6 7 7 4 3 4 7 7 5 5 6 5 3 7 9 9 9 10 9 9 8 7 6 5 5 5 5 4 3 3 4 4 4 3 1 1 0 1 1 2 1 2
5 3 4 5 5 4 4 5 7 6 8 8 8 9 10 12 12 11 10 10 10 9 8 8 7 5 5 5 4 4 3 3 4 4 4 1 1 1 1 1 1 2 2 2
3 3 1 2 1 2 2 4 6 6 6 6 7 5 5 7 8 9 10 12 11 10 9 8 7 6 5 5 5 4 4 3 4 4 3 2 2 2 2 1 1 2 3 3
2 4 3 2 3 2 2 6 7 6 6 9 8 8 9 9 12 13 12 12 12 10 9 9 7 7 6 5 5 5 4 3 4 4 2 2 2 2 2 2 3 2 3 2
6 4 4 2 2 3 7 5 7 7 5 6 7 8 13 12 11 9 9 12 11 10 9 8 7 6 5 4 4 4 4 5 4 3 2 2 2 2 2 3 2 2 2 2
6 7 4 3 3 4 5 2 5 7 3 5 10 10 10 11 9 3 4 9 10 10 9 7 7 6 5 5 5 6 5 4 4 2 1 0 1 1 2 2 2 2 2 2
5 6 6 4 4 6 7 5 2 8 2 5 10 13 12 11 7 6 7 8 8 8 8 7 7 6 6 4 5 6 5 4 2 2 1 1 1 1 0 1 1 1 1 2
3 3 5 4 4 7 7 4 4 6 8 6 10 13 13 9 8 8 10 9 9 8 8 8 8 6 5 5 6 6 4 3 3 2 1 0 0 1 1 1 1 1 2 2
7 6 6 6 4 8 5 3 6 7 4 8 10 11 11 8 9 10 11 10 10 9 8 8 8 6 4 5 6 5 3 3 1 1 1 0 1 1 1 0 1 2 2 2
4 7 6 7 7 5 3 5 4 6 7 6 8 9 12 11 10 10 9 9 9 9 8 7 7 6 4 4 6 5 3 2 2 2 1 0 1 1 1 0 1 2 2 2
2 2 4 2 2 1 2 4 4 6 7 7 9 10 11 10 10 10 10 9 8 7 7 6 7 6 4 3 4 4 3 3 3 2 0 1 1 2 2 1 1 1 2 3
2 2 3 1 1 3 4 2 5 7 9 9 8 8 9 11 10 10 9 8 8 6 5 6 7 6 5 4 3 3 3 4 3 2 0 1 1 1 2 2 3 3 4 4
3 4 5 6 7 5 4 4 6 9 8 9 10 8 7 9 10 9 8 7 6 6 5 5 5 5 4 4 3 2 3 4 4 2 1 1 1 1 2 2 4 5 6 8
Wind_Direction
69 82 192 206 187 189 186 170 206 234 243 137 164 193 230 201 156 164 165 167 165 172 171 161 153 153 147 144 143 146 143 146 130 115 112 106 104 91 60 74 95 92 81 72
57 251 230 220 221 214 189 178 221 268 256 163 149 193 243 207 178 175 165 166 163 149 143 148 148 152 152 157 156 153 151 150 145 146 142 142 138 140 119 45 58 76 83 72
190 232 215 209 224 211 213 200 200 180 42 64 100 355 288 285 147 137 146 160 159 163 160 158 151 152 150 154 162 161 161 156 152 140 112 87 66 49 34 24 359 345 62 72
235 234 191 206 221 190 219 207 184 164 129 191 141 183 272 225 145 146 153 157 161 161 153 156 152 155 159 164 162 155 154 152 148 136 133 133 134 148 209 221 257 307 23 67
238 204 186 204 219 185 196 171 149 139 129 108 76 137 273 216 178 194 181 169 170 165 160 162 162 163 161 158 155 156 151 154 150 142 146 140 142 168 188 117 46 347 337 328
238 232 190 203 213 177 151 89 77 65 78 81 222 159 251 218 194 187 187 178 175 169 166 159 152 145 146 143 141 146 147 155 152 145 148 150 154 154 142 137 184 309 325 323
278 270 233 179 132 113 110 101 76 44 45 252 214 161 239 229 194 179 181 184 176 166 161 153 147 149 150 146 144 144 144 149 153 150 158 163 163 163 171 187 196 212 274 283
179 263 241 191 165 163 156 136 154 170 181 252 4 217 255 236 181 169 166 165 158 160 160 159 160 158 158 155 149 143 146 153 160 158 169 175 171 171 187 194 193 205 216 233
177 240 250 200 148 139 132 148 161 126 122 110 253 269 326 81 125 143 145 147 155 161 160 160 159 157 157 157 158 155 153 156 162 163 155 160 171 182 193 198 192 209 226 230
168 211 251 193 96 63 143 145 111 124 146 154 245 241 213 184 167 157 155 157 158 156 153 152 149 150 149 147 143 140 147 157 157 153 158 153 164 173 178 165 198 229 243 233
157 165 257 161 175 176 135 125 122 116 145 148 184 254 220 190 173 162 165 163 159 157 154 152 152 154 143 128 123 126 132 129 137 148 140 129 141 134 118 124 219 243 255 234
167 135 202 244 243 177 164 171 150 147 176 157 163 258 262 175 164 157 159 159 157 153 148 145 143 135 126 129 130 129 132 138 149 141 125 133 128 106 92 76 292 280 273 272
146 123 97 347 331 237 182 178 156 137 123 150 162 249 336 133 139 151 151 153 153 147 139 133 127 128 130 130 126 125 130 134 125 113 107 101 95 92 85 340 319 341 345 356
130 126 163 190 212 199 201 186 161 138 148 174 198 196 177 155 153 156 154 153 148 145 143 138 136 137 136 133 130 126 121 117 110 102 98 93 87 102 123 0 7 5 7 19
122 152 212 227 217 179 186 188 176 170 175 172 190 185 194 183 170 164 155 147 143 143 147 149 149 147 139 133 131 126 123 116 109 100 89 78 43 40 43 26 11 9 16 14
119 155 160 294 246 156 190 209 183 180 169 159 148 197 199 158 138 142 151 151 150 152 153 152 148 146 146 146 142 134 128 125 112 107 101 77 56 44 34 20 20 17 5 357
140 138 124 255 287 46 264 225 188 176 176 160 175 199 152 143 158 167 167 161 161 161 158 157 157 157 162 165 156 150 146 121 109 105 90 71 60 43 22 24 34 13 356 0
150 134 136 167 95 209 245 247 171 158 180 174 159 159 160 161 164 166 166 163 163 162 160 160 157 156 158 148 139 135 120 115 113 105 89 70 64 42 25 30 18 349 347 349
156 143 129 134 175 263 285 249 165 153 199 185 153 150 143 125 98 95 173 161 162 161 157 155 153 145 137 135 135 122 113 112 108 111 115 107 92 63 33 9 330 319 337 331
103 110 123 131 160 224 244 262 180 114 174 222 159 152 145 129 142 206 186 155 146 142 140 139 135 124 127 136 129 118 120 121 148 193 206 201 157 145 201 292 300 313 315 304
119 104 139 161 200 253 255 264 109 140 212 199 166 158 154 160 174 169 151 142 141 137 137 135 131 131 142 142 126 123 131 166 208 208 197 231 261 232 231 278 315 325 322 331
173 168 177 156 185 244 251 143 168 197 170 152 153 156 151 137 124 130 139 141 140 135 133 134 133 135 138 136 131 133 166 205 186 144 119 344 311 308 360 349 324 331 336 331
184 188 178 181 206 246 235 179 171 143 136 142 147 147 140 131 134 137 142 144 144 142 141 137 137 138 141 145 141 149 192 181 146 122 108 348 345 334 333 261 301 321 327 316
311 98 114 116 287 326 80 102 105 121 128 133 137 137 135 135 140 140 143 143 143 142 145 140 139 142 153 163 158 169 173 149 133 131 176 303 341 330 326 298 269 280 291 297
244 88 95 109 204 67 32 87 114 104 105 111 116 126 136 133 136 143 146 149 151 148 148 148 152 159 171 172 169 174 158 134 128 136 177 298 302 280 291 292 274 265 256 253
225 172 166 208 213 171 188 178 128 118 122 128 125 117 123 134 139 137 141 145 144 142 140 144 152 160 171 170 175 185 171 152 148 157 207 245 275 288 292 302 313 297 284 290
Height
1492 1497 1500 1499 1498 1499 1501 1504 1507 1504 1499 1501 1504 1505 1503 1502 1503 1504 1506 1508 1510 1512 1515 1518 1520 1522 1525 1527 1528 1530 1531 1531 1532 1532 1532 1532 1532 1532 1532 1531 1530 1530 1528 1527
1497 1499 1494 1493 1494 1496 1499 1505 1506 1503 1498 1501 1506 1507 1504 1502 1502 1503 1504 1506 1509 1511 1514 1517 1520 1522 1524 1526 1528 1529 1530 1531 1531 1532 1532 1532 1532 1532 1532 1531 1530 1530 1529 1527
1497 1494 1489 1492 1495 1497 1499 1503 1504 1505 1503 1502 1507 1513 1508 1504 1503 1504 1505 1506 1508 1510 1512 1515 1518 1521 1523 1525 1527 1528 1529 1530 1531 1531 1532 1532 1532 1532 1532 1531 1530 1530 1529 1528
1493 1489 1489 1492 1493 1495 1502 1494 1496 1501 1510 1516 1512 1525 1513 1507 1505 1505 1505 1506 1508 1510 1512 1514 1517 1520 1522 1524 1526 1527 1528 1530 1530 1531 1531 1532 1532 1531 1531 1531 1530 1530 1529 1528
1491 1486 1488 1491 1490 1490 1495 1491 1495 1501 1510 1517 1516 1523 1518 1507 1508 1506 1505 1506 1507 1510 1512 1514 1516 1519 1521 1523 1525 1527 1528 1529 1530 1530 1531 1531 1531 1531 1531 1531 1530 1530 1529 1528
1486 1483 1484 1485 1484 1486 1489 1494 1500 1506 1513 1525 1518 1522 1520 1510 1505 1503 1503 1505 1506 1509 1511 1514 1516 1519 1521 1523 1524 1526 1527 1528 1529 1530 1530 1531 1531 1531 1531 1531 1530 1530 1529 1528
1488 1483 1481 1481 1485 1487 1491 1505 1520 1525 1530 1527 1513 1517 1514 1499 1497 1498 1500 1502 1505 1507 1510 1513 1515 1517 1519 1521 1523 1525 1526 1527 1528 1529 1530 1530 1531 1531 1530 1530 1530 1530 1529 1528
1497 1496 1482 1479 1483 1489 1493 1501 1520 1529 1531 1525 1515 1517 1505 1493 1493 1495 1497 1500 1504 1507 1509 1511 1514 1516 1519 1520 1522 1524 1525 1526 1527 1528 1529 1529 1530 1530 1530 1530 1530 1529 1529 1528
1496 1494 1479 1477 1478 1484 1494 1501 1501 1513 1519 1525 1520 1510 1500 1493 1494 1496 1498 1500 1503 1506 1508 1511 1513 1515 1518 1520 1521 1523 1524 1525 1526 1527 1528 1528 1529 1529 1529 1529 1529 1529 1529 1528
1486 1491 1481 1477 1479 1483 1486 1492 1504 1513 1523 1529 1521 1514 1510 1500 1497 1496 1497 1500 1502 1505 1508 1510 1512 1515 1517 1519 1521 1522 1523 1524 1525 1526 1527 1527 1528 1528 1529 1529 1529 1528 1528 1527
1480 1489 1486 1480 1483 1487 1490 1494 1499 1509 1512 1525 1529 1518 1491 1492 1491 1494 1496 1498 1501 1504 1506 1509 1512 1514 1516 1518 1520 1521 1522 1523 1524 1525 1526 1526 1527 1527 1528 1528 1528 1527 1527 1527
1477 1487 1492 1484 1476 1474 1480 1485 1494 1508 1513 1514 1519 1513 1484 1486 1489 1491 1495 1498 1500 1503 1506 1509 1511 1514 1516 1517 1519 1520 1521 1522 1523 1524 1525 1525 1526 1526 1526 1526 1526 1526 1526 1525
1474 1486 1497 1495 1488 1480 1479 1479 1484 1492 1504 1513 1518 1508 1486 1487 1490 1492 1494 1497 1500 1503 1506 1509 1511 1513 1515 1517 1518 1520 1521 1521 1523 1523 1524 1524 1525 1525 1525 1525 1525 1524 1524 1524
1468 1481 1490 1496 1489 1480 1479 1477 1479 1489 1502 1507 1504 1499 1492 1489 1490 1492 1494 1497 1500 1503 1505 1508 1510 1513 1515 1516 1518 1519 1520 1521 1522 1522 1523 1523 1523 1524 1524 1524 1523 1523 1523 1522
1467 1478 1477 1475 1472 1472 1473 1474 1476 1482 1486 1494 1492 1492 1488 1486 1487 1490 1493 1496 1499 1502 1505 1507 1510 1512 1514 1516 1517 1518 1519 1520 1521 1522 1522 1522 1523 1523 1522 1522 1522 1521 1521 1520
1468 1474 1475 1475 1469 1470 1472 1471 1472 1475 1478 1482 1484 1487 1481 1484 1487 1491 1493 1496 1498 1501 1504 1507 1509 1511 1513 1515 1516 1518 1519 1520 1520 1521 1521 1521 1521 1521 1521 1521 1520 1520 1519 1519
1470 1474 1480 1484 1474 1473 1482 1471 1470 1472 1472 1475 1482 1482 1480 1484 1487 1488 1491 1494 1496 1499 1503 1506 1508 1510 1512 1514 1515 1517 1518 1519 1519 1520 1520 1520 1520 1520 1520 1519 1519 1518 1517 1517
1468 1474 1482 1485 1482 1492 1476 1461 1462 1467 1469 1468 1470 1473 1476 1478 1482 1486 1489 1491 1495 1498 1502 1504 1507 1509 1512 1513 1515 1516 1517 1518 1518 1519 1519 1519 1519 1518 1518 1518 1517 1516 1516 1515
1460 1469 1481 1488 1489 1483 1469 1461 1461 1467 1473 1467 1469 1472 1476 1479 1484 1489 1490 1491 1494 1497 1500 1503 1506 1508 1510 1512 1514 1515 1516 1517 1517 1517 1517 1517 1517 1517 1516 1516 1515 1514 1514 1513
1460 1464 1478 1486 1487 1489 1471 1458 1456 1462 1476 1467 1466 1470 1474 1478 1489 1489 1488 1491 1494 1497 1500 1503 1505 1507 1509 1511 1512 1513 1514 1515 1515 1516 1516 1516 1516 1515 1515 1514 1513 1512 1512 1511
1467 1472 1478 1484 1485 1477 1461 1456 1457 1475 1473 1464 1465 1467 1471 1473 1477 1481 1485 1489 1493 1496 1499 1502 1504 1506 1508 1509 1511 1511 1512 1513 1514 1514 1514 1514 1514 1513 1513 1512 1511 1510 1509 1508
1467 1473 1477 1482 1485 1479 1455 1456 1460 1461 1457 1460 1463 1465 1468 1472 1476 1480 1484 1487 1491 1494 1497 1500 1502 1504 1506 1508 1509 1509 1510 1511 1512 1512 1512 1512 1512 1511 1511 1510 1509 1508 1507 1505
1461 1461 1464 1467 1468 1457 1452 1452 1453 1454 1456 1459 1462 1465 1468 1472 1476 1479 1483 1487 1490 1493 1496 1499 1501 1503 1505 1506 1507 1508 1509 1510 1510 1510 1510 1510 1509 1509 1508 1507 1506 1505 1504 1502
1457 1455 1459 1462 1459 1455 1453 1453 1454 1455 1457 1460 1462 1465 1468 1471 1475 1478 1482 1486 1489 1492 1495 1497 1499 1501 1502 1504 1505 1506 1507 1507 1508 1508 1508 1507 1507 1506 1506 1505 1504 1502 1501 1499
1455 1455 1459 1461 1458 1456 1456 1455 1455 1457 1459 1461 1464 1466 1469 1471 1475 1478 1481 1484 1487 1490 1493 1495 1497 1499 1500 1502 1503 1504 1505 1505 1505 1505 1505 1504 1504 1503 1502 1501 1500 1499 1498 1497
1453 1455 1458 1459 1454 1455 1456 1456 1457 1458 1460 1462 1464 1467 1470 1472 1474 1477 1480 1483 1486 1489 1491 1494 1496 1497 1499 1500 1501 1501 1502 1503 1503 1502 1502 1501 1501 1500 1499 1498 1497 1495 1495 1493